Home > Weather > Dhar > Past weeks

Flag for India Weather for the Past 2 Weeks in Dhar, Madhya Pradesh, India

Now
82 °F

Clear.


Feels Like: 86 °F
Forecast: 80 / 101 °F
Wind: 2 mph from Northwest

Location: Ahmadabad Airport

Current Time: May 1, 2016 at 6:54:15 AM

Latest Report: May 1, 2016 at 6:00 AM


Visibility: 2 mi

Pressure: 29.74 "Hg (27.91 "Hg at 561m altitude)

Humidity: 66%

Dew Point: 70 °F

Location of DharLocation

Historic Weather in Dhar — Graph

°F

Dhar Temperature Yesterday

Maximum temperature yesterday: 113 °F (at 4:00 PM)
Minimum temperature yesterday: 81 °F (at 6:30 AM)
Average temperature yesterday: 95 °F

High & Low Weather Summary for the Past Weeks

 TemperatureHumidityPressure
High113 °F (Apr 29, 2:30 PM)74% (Apr 23, 6:30 AM)29.89 "Hg (Apr 23, 6:30 AM)
Low77 °F (Apr 18, 6:00 AM)9% (Apr 29, 3:30 PM)29.59 "Hg (Apr 23, 5:00 PM)
Average92 °F37%29.74 "Hg
* Reported Apr 16 5:30 AM — May 1 5:30 AM, Dhar, Weather by CustomWeather, © 2016

Note: Actual official high and low records may vary slightly from our data, if they occured in-between our weather recording intervals... More about our weather records

Advertising

Dhar Weather History for the Previous 24 Hours

Scroll right to see more
 ConditionsComfort  
Time TempWeatherWind HumidityBarometerVisibility
5:30 AM
Sun, May 1
84 °FClear.2 mph58%29.74 "Hg2 mi
5:00 AM84 °FClear.5 mph55%29.71 "Hg2 mi
4:30 AM86 °FClear.5 mph52%29.71 "Hg2 mi
4:00 AM86 °FPassing clouds.6 mph49%29.71 "Hg2 mi
3:30 AM88 °FPassing clouds.5 mph43%29.71 "Hg2 mi
3:00 AM88 °FPassing clouds.5 mph40%29.71 "Hg2 mi
2:30 AM88 °FPassing clouds.5 mph43%29.74 "Hg2 mi
2:00 AM88 °FPassing clouds.6 mph46%29.74 "Hg2 mi
1:30 AM88 °FPassing clouds.6 mph43%29.74 "Hg2 mi
1:00 AM90 °FPassing clouds.8 mph41%29.74 "Hg2 mi
12:30 AM90 °FPassing clouds.8 mph41%29.74 "Hg2 mi
12:00 AM91 °FPassing clouds.7 mph38%29.74 "Hg2 mi
11:30 PM
Sat, Apr 30
90 °FPassing clouds.7 mph43%29.74 "Hg2 mi
11:00 PM91 °FPassing clouds.9 mph41%29.74 "Hg2 mi
10:30 PM91 °FPassing clouds.10 mph38%29.74 "Hg2 mi
10:00 PM93 °FPassing clouds.8 mph36%29.74 "Hg2 mi
9:30 PM93 °FPassing clouds.8 mph36%29.71 "Hg2 mi
9:00 PM93 °FPassing clouds.10 mph49%29.71 "Hg2 mi
8:30 PM99 °FPassing clouds.10 mph35%29.71 "Hg2 mi
8:00 PM102 °FPassing clouds.7 mph27%29.68 "Hg2 mi
7:00 PM104 °FPassing clouds.6 mph20%29.65 "Hg2 mi
6:30 PM106 °FPassing clouds.6 mph19%29.65 "Hg3 mi
6:00 PM108 °FClear.5 mph18%29.65 "Hg4 mi
5:30 PM109 °FClear.6 mph17%29.65 "Hg4 mi
5:00 PM113 °FClear.3 mph15%29.65 "Hg4 mi
4:30 PM111 °FClear.7 mph17%29.65 "Hg4 mi
4:00 PM113 °FClear.5 mph17%29.65 "Hg4 mi
1:00 PM106 °FClear.5 mph25%29.74 "Hg4 mi
12:30 PM106 °FClear.7 mph23%29.74 "Hg4 mi
12:00 PM104 °FClear.7 mph26%29.77 "Hg4 mi
11:30 AM100 °FClear.7 mph33%29.77 "Hg4 mi
10:00 AM95 °FClear.5 mph41%29.80 "Hg2 mi
9:30 AM91 °FClear.6 mph49%29.80 "Hg2 mi
8:30 AM88 °FClear.5 mph52%29.80 "Hg2 mi
8:00 AM88 °FClear.5 mph55%29.80 "Hg2 mi
7:30 AM86 °FClear.5 mph55%29.77 "Hg2 mi
7:00 AM81 °FClear.No wind58%29.77 "Hg2 mi
6:30 AM81 °FClear.No wind58%29.74 "Hg2 mi
Weather by CustomWeather, © 2016

See weather overviewHow to use our weather pages